Torna al catalogo

MIDAS 4 DEB

AttivoPO
NORAD 2371·DEBRIS·🇺🇸 United States

Lanciato Oct 21, 1961 da Vandenberg Space Force Base

Loading…

Prossimi Passaggi (prossime 24 ore)

TLE

ObsoletoSource: Space-Track

Epoca: Aug 31, 2026, 08:46 UTC

1 02371U 61028F   26243.36565817 -.00000745  00000-0 -28335+0 0  9996
2 02371  95.8368 317.0087 0557125 108.4039 257.8195  8.70051063 35667

Traccia MIDAS 4 DEB in tempo reale con AllMySat

Download on the App Store